Regional Weather Roundup
Issued by NWS

Home | Current Version | Previous Version | Text Only | Print | Product List | Glossary Off
Versions: 1 2 3 4 5 6 7 8 9 10 11 12 13 14 15 16 17 18 19 20 21 22 23 24 25 26 27 28 29 30 31 32 33 34 35 36 37 38 39 40 41 42 43 44 45 46 47 48 49 50

000
ASUS45 KCYS 272310
RWRWY

WYOMING REGIONAL WEATHER ROUNDUP
NATIONAL WEATHER SERVICE CHEYENNE WY
500 PM MDT THU JUL 27 2017

NOTE:  "FAIR" INDICATES FEW OR NO CLOUDS BELOW 12,000 FEET
WITH NO SIGNIFICANT WEATHER AND/OR OBSTRUCTIONS TO VISIBILITY.

WYZ001-280000-
YELLOWSTONE NATIONAL PARK

CITY           SKY/WX    TMP DP  RH WIND       PRES   REMARKS
LK YELLOWSTONE   N/A     67  43  41 VRB7      30.33F
W YELLOWSTONE  NOT AVBL

$$
WYZ002>013-054>058-071-098>099-280000-
NORTHERN WYOMING

CITY           SKY/WX    TMP DP  RH WIND       PRES   REMARKS
JACKSON        MOSUNNY   68  46  45 CALM      30.27F
CODY           FAIR      84  43  23 W10G22    30.09F
GREYBULL       FAIR      92  45  19 W22       29.97F
WORLAND        FAIR      87  51  28 N9        30.02F
SHERIDAN       FAIR      90  51  26 W6        29.99F
BUFFALO        FAIR      86  51  29 N8        30.06F
GILLETTE       FAIR      83  60  45 NE23      30.01R
HULETT         FAIR      64  59  82 E7        30.07F
NEWCASTLE      FAIR      81  52  36 SE22G35   30.03S

$$
WYZ014>020-022>026-101>103-280000-
CENTRAL WYOMING

CITY           SKY/WX    TMP DP  RH WIND       PRES   REMARKS
BIG PINEY      FAIR      71  49  45 N21       30.27R
PINEDALE       TSTM      64  52  63 NW18G33   30.31R
DUBOIS         CLOUDY    55  50  82 W13G21    30.29R
LANDER         FAIR      84  47  27 CALM      30.12F
RIVERTON       FAIR      88  39  17 N7        30.09F
CASPER         FAIR      89  44  20 W14       30.07F
DOUGLAS        FAIR      90  51  26 W17G23    30.04F

$$
WYZ021-027>030-104>119-280000-
SOUTHERN WYOMING

CITY           SKY/WX    TMP DP  RH WIND       PRES   REMARKS
EVANSTON       FAIR      80  44  27 W17G24    30.29F
KEMMERER         N/A     79  39  24 W14G23    30.28F
FORT BRIDGER   FAIR      83  39  20 W21G29    30.30F
ROCK SPRINGS   FAIR      83  38  20 W16G26    30.22F
RAWLINS        FAIR      84  40  21 W15       30.21F
SARATOGA       MOCLDY    77  46  33 NW28G40   30.27R
LARAMIE        FAIR      82  46  28 NW13      30.23F
CHEYENNE       FAIR      82  57  42 SW17      30.18F
TORRINGTON     TSTM      75  64  68 S12G23    30.01S
PINE BLUFFS    FAIR      84  50  30 S9        30.10F

$$



USA.gov is the U.S. government's official web portal to all federal, state and local government web resources and services.